This demonstration page uses our WeatherBlox Daily Observations layout. Learn more.

Left ArrowRight Arrow

Hourly Observations for October 28, 2018

Temp ( °F °C ) Dew Point ( °F °C ) Humidity (%) Winds ( mph kmh ) Pressure ( in mb ) Visibility ( mi km ) Precip ( " mm )
12:53 am 00:53 Mostly Clear 54 12.2 44 6.7 69 69 NNW 13 20 30.01 1016 10 16 0.00 0.00
1:53 am 01:53 Clear 52 11.1 41 5 66 66 undefined N/A 30.01 1016 10 16 0.00 0.00
2:53 am 02:53 Clear 50 10 36 2.2 59 59 N 15 24 30.05 1018 10 16 0.00 0.00
3:53 am 03:53 Clear 46 7.8 36 2.2 68 68 N 13 20 30.08 1019 10 16 0.00 0.00
4:53 am 04:53 Clear 42 5.6 35 1.7 76 76 NW 9 15 30.10 1019 10 16 0.00 0.00
5:53 am 05:53 Clear 40 4.4 34 1.1 79 79 WNW 9 15 30.12 1020 10 16 0.00 0.00
6:53 am 06:53 Clear 38 3.3 33 0.6 83 83 WNW 8 13 30.12 1020 10 16 0.00 0.00
7:53 am 07:53 Clear 37 2.8 32 0 82 82 WNW 10 17 30.14 1021 10 16 0.00 0.00
8:53 am 08:53 Sunny 41 5 33 0.6 73 73 NW 13 20 30.16 1021 10 16 0.00 0.00
9:53 am 09:53 Sunny 47 8.3 36 2.2 66 66 NW 7 11 30.18 1022 10 16 0.00 0.00
10:53 am 10:53 Sunny 53 11.7 35 1.7 51 51 NW 7 11 30.18 1022 10 16 0.00 0.00
11:53 am 11:53 Sunny 59 15 34 1.1 39 39 N 7 11 30.18 1022 10 16 0.00 0.00
12:53 pm 12:53 Sunny 61 16.1 34 1.1 36 36 NNW 6 9 30.15 1021 10 16 0.00 0.00
1:53 pm 13:53 Sunny 64 17.8 33 0.6 32 32 W 9 15 30.12 1020 10 16 0.00 0.00
2:53 pm 14:53 Sunny 66 18.9 31 -0.6 27 27 W 7 11 30.09 1019 10 16 0.00 0.00
3:53 pm 15:53 Sunny 67 19.4 31 -0.6 26 26 W 10 17 30.08 1019 10 16 0.00 0.00
4:53 pm 16:53 Sunny 67 19.4 31 -0.6 26 26 W 10 17 30.07 1018 10 16 0.00 0.00
5:53 pm 17:53 Sunny 65 18.3 31 -0.6 28 28 W 7 11 30.08 1019 10 16 0.00 0.00
6:53 pm 18:53 Clear 60 15.6 31 -0.6 33 33 SW 3 6 30.09 1019 10 16 0.00 0.00
7:53 pm 19:53 Clear 54 12.2 34 1.1 47 47 SW 5 7 30.10 1019 10 16 0.00 0.00
8:53 pm 20:53 Clear 53 11.7 33 0.6 47 47 SSW 6 9 30.10 1019 10 16 0.00 0.00
9:53 pm 21:53 Clear 52 11.1 33 0.6 49 49 S 7 11 30.10 1019 10 16 0.00 0.00
10:53 pm 22:53 Clear 51 10.6 34 1.1 52 52 S 6 9 30.08 1019 10 16 0.00 0.00
11:53 pm 23:53 Clear 50 10 34 1.1 54 54 SSW 5 7 30.07 1018 10 16 0.00 0.00

Powered by AerisWeather